Flag for Germany Weather past 2 weeks in Halle, Saxony-Anhalt, Germany

Now
68 °F

Broken clouds.


Feels Like: 68 °F
Forecast: 55 / 83 °F
Wind: 5 mph from West

Location: Leipzig-Schkeuditz

Current Time: Jul 25, 2014 at 4:09:01 PM

Latest Report: Jul 25, 2014 at 3:20 PM


Visibility: N/A

Pressure: 29.92 "Hg

Humidity: 88%

Dew point: 64 °F

Location of HalleLocation

Historic Weather in Halle — Graph

°F

Halle temperature yesterday

Maximum temperature yesterday: 73 °F (at 4:50 PM)
Minimum temperature yesterday: 57 °F (at 4:20 AM)
Average temperature yesterday: 65 °F

Past Weeks' High & Low Weather Summary

 TemperatureHumidityPressure
High93 °F (Jul 20, 3:50 PM)100% (Jul 11, 12:50 AM)30.18 "Hg (Jul 11, 12:50 AM)
Low52 °F (Jul 12, 3:50 AM)22% (Jul 19, 6:50 PM)29.71 "Hg (Jul 10, 2:20 PM)
Average70 °F68%29.96 "Hg
* Reported Jul 10 2:20 PM — Jul 25 2:20 PM, Halle, Weather by CustomWeather, © 2014

Note: Actual official high and low records may vary slightly from our data, if they occured in-between our weather recording intervals... More about our weather records

Advertising

Halle weather history for previous 24 hours

 ConditionsComfort  
Time TempWeatherWind HumidityBarometerVisibility
2:20 PM
Jul 25
68 °FThundershowers. Broken clouds.6 mph88%29.95 "HgN/A
1:50 PM66 °FPartly sunny.7 mph94%29.95 "Hg5 mi
1:20 PM66 °FDrizzle. Partly sunny.6 mph94%29.95 "Hg4 mi
12:50 PM66 °FPartly sunny.3 mph94%29.95 "Hg4 mi
12:20 PM64 °FDrizzle. Fog.3 mph100%29.95 "Hg2 mi
11:50 AM64 °FDrizzle. Fog.5 mph100%29.95 "Hg2 mi
11:20 AM64 °FDrizzle. Fog.3 mph100%29.95 "Hg2 mi
10:50 AM64 °FDrizzle. Fog.5 mph100%29.95 "Hg1 mi
10:20 AM63 °FDrizzle. Fog.3 mph100%29.95 "Hg1 mi
9:50 AM63 °FDrizzle. Fog.3 mph100%29.95 "Hg1 mi
9:20 AM63 °FDrizzle. Fog.3 mph100%29.95 "Hg1 mi
8:50 AM63 °FDrizzle. Fog.5 mph100%29.95 "Hg1 mi
8:20 AM63 °FDrizzle. Fog.5 mph100%29.92 "Hg1 mi
7:50 AM63 °FDrizzle. Fog.3 mph100%29.92 "Hg1 mi
7:20 AM61 °FDrizzle. Fog.6 mph100%29.92 "Hg1 mi
6:50 AM61 °FLight rain. Fog.7 mph100%29.92 "Hg1 mi
6:20 AM61 °FLight rain. Fog.7 mph100%29.92 "Hg2 mi
5:50 AM61 °FLight rain. Fog.8 mph100%29.92 "Hg4 mi
5:20 AM61 °FLight rain. Fog.9 mph100%29.92 "Hg3 mi
4:50 AM61 °FLight rain. Fog.10 mph100%29.92 "Hg2 mi
4:20 AM61 °FLight rain. Passing clouds.9 mph100%29.92 "Hg2 mi
3:50 AM61 °FRain. Passing clouds.10 mph100%29.92 "Hg2 mi
3:20 AM61 °FRain. Passing clouds.10 mph100%29.92 "Hg2 mi
2:50 AM61 °FRain. Passing clouds.8 mph100%29.95 "Hg3 mi
2:20 AM61 °FRain. Passing clouds.8 mph100%29.95 "Hg3 mi
1:50 AM61 °FRain. Passing clouds.9 mph100%29.95 "Hg3 mi
1:20 AM61 °FLight rain. Passing clouds.10 mph100%29.95 "Hg3 mi
12:50 AM61 °FRain. Passing clouds.12 mph100%29.95 "Hg3 mi
12:20 AM61 °FRain. Passing clouds.12 mph100%29.98 "Hg3 mi
11:50 PM
Jul 24
61 °FRain. Passing clouds.12 mph100%29.98 "Hg3 mi
11:20 PM61 °FLight rain. Partly cloudy.9 mph100%29.98 "Hg3 mi
10:50 PM61 °FLight rain. Partly cloudy.8 mph100%29.98 "Hg3 mi
10:20 PM61 °FLight rain. Passing clouds.8 mph100%29.98 "Hg4 mi
9:50 PM61 °FLight rain. Partly sunny.9 mph100%29.98 "Hg3 mi
9:20 PM61 °FLight rain. Partly sunny.14 mph100%29.98 "Hg5 mi
8:50 PM63 °FLight rain. Partly sunny.10 mph100%29.98 "Hg5 mi
8:20 PM63 °FLight rain. Partly sunny.12 mph94%29.98 "Hg2 mi
7:50 PM63 °FDrizzle. Broken clouds.15 mph88%29.98 "HgN/A
7:20 PM66 °FBroken clouds.17 mph73%29.98 "HgN/A
6:50 PM70 °FBroken clouds.20 mph60%29.98 "HgN/A
6:20 PM72 °FPartly sunny.18 mph53%29.98 "HgN/A
5:50 PM72 °FPartly sunny.17 mph57%29.98 "HgN/A
5:20 PM72 °FBroken clouds.20 mph57%29.98 "HgN/A
4:50 PM73 °FBroken clouds.15 mph53%29.98 "HgN/A
4:20 PM70 °FPartly sunny.6 mph69%29.98 "HgN/A
Weather by CustomWeather, © 2014

See weather overviewHow to use our weather pages